• In Österreich
  • Länderverzeichnis
  • Für 7 Tage
  • Wassertemperatur
  • Satellitenkarten
  • Wetterkarte
  • News
  • Widgets
  • user-avatar
    Anmelden

    Stündliche Wetter Ordino

    Heute, 24 September, Montag

    Zeit Temperatur Niederschläge Wind Luftdruck Luftfeuchtigkeit
    00:00 +12°C° 0 mm 3 m/S 639 mmHg 79%
    01:00 +12°C° 0 mm 3 m/S 639 mmHg 78%
    02:00 +12°C° 0 mm 3 m/S 639 mmHg 78%
    03:00 +12°C° 0 mm 3 m/S 639 mmHg 77%
    04:00 +12°C° 0 mm 2 m/S 639 mmHg 80%
    05:00 +12°C° 0 mm 2 m/S 639 mmHg 83%
    06:00 +11°C° 0 mm 3 m/S 639 mmHg 85%
    07:00 +12°C° 0 mm 3 m/S 639 mmHg 82%
    08:00 +13°C° 0 mm 3 m/S 640 mmHg 79%
    09:00 +15°C° 0 mm 2 m/S 640 mmHg 76%
    10:00 +16°C° 0 mm 3 m/S 641 mmHg 71%
    11:00 +16°C° 0 mm 3 m/S 641 mmHg 66%
    12:00 +17°C° 0 mm 3 m/S 641 mmHg 63%
    13:00 +17°C° 0 mm 3 m/S 641 mmHg 61%
    14:00 +17°C° 0 mm 3 m/S 641 mmHg 58%
    15:00 +17°C° 0 mm 3 m/S 641 mmHg 55%
    16:00 +14°C° 0.1 mm 3 m/S 640 mmHg 61%
    17:00 +12°C° 0.1 mm 3 m/S 640 mmHg 68%
    18:00 +10°C° 0.1 mm 3 m/S 639 mmHg 74%
    19:00 +9°C° 0.1 mm 3 m/S 639 mmHg 73%
    20:00 +8°C° 0.1 mm 3 m/S 639 mmHg 71%
    21:00 +8°C° 0.1 mm 2 m/S 639 mmHg 69%
    22:00 +7°C° 0 mm 2 m/S 639 mmHg 67%
    23:00 +7°C° 0 mm 2 m/S 639 mmHg 65%

    Morgen, 25 September, Dienstag

    Zeit Temperatur Niederschläge Wind Luftdruck Luftfeuchtigkeit
    00:00 +7°C° 0 mm 2 m/S 639 mmHg 62%
    01:00 +7°C° 0 mm 2 m/S 639 mmHg 63%
    02:00 +8°C° 0 mm 1 m/S 639 mmHg 64%
    03:00 +7°C° 0 mm 1 m/S 639 mmHg 65%
    04:00 +7°C° 0 mm 1 m/S 639 mmHg 67%
    05:00 +7°C° 0 mm 1 m/S 639 mmHg 69%
    06:00 +7°C° 0 mm 1 m/S 639 mmHg 71%
    07:00 +9°C° 0 mm 1 m/S 640 mmHg 64%
    08:00 +12°C° 0 mm 1 m/S 641 mmHg 58%
    09:00 +14°C° 0 mm 2 m/S 642 mmHg 52%
    10:00 +15°C° 0 mm 2 m/S 643 mmHg 49%
    11:00 +17°C° 0 mm 2 m/S 643 mmHg 47%
    12:00 +18°C° 0 mm 2 m/S 643 mmHg 45%
    13:00 +17°C° 0 mm 2 m/S 643 mmHg 48%
    14:00 +17°C° 0 mm 2 m/S 642 mmHg 50%
    15:00 +16°C° 0 mm 2 m/S 642 mmHg 53%
    16:00 +15°C° 0 mm 2 m/S 642 mmHg 60%
    17:00 +13°C° 0 mm 2 m/S 641 mmHg 67%
    18:00 +12°C° 0 mm 1 m/S 641 mmHg 74%
    19:00 +11°C° 0 mm 1 m/S 641 mmHg 78%
    20:00 +10°C° 0 mm 1 m/S 641 mmHg 81%
    21:00 +10°C° 0 mm 1 m/S 641 mmHg 84%
    22:00 +9°C° 0 mm 1 m/S 641 mmHg 84%
    23:00 +8°C° 0 mm 2 m/S 641 mmHg 84%

    übermorgen, 26 September, Mittwoch

    Zeit Temperatur Niederschläge Wind Luftdruck Luftfeuchtigkeit
    00:00 +8°C° 0 mm 2 m/S 641 mmHg 84%
    01:00 +8°C° 0 mm 2 m/S 641 mmHg 83%
    02:00 +8°C° 0 mm 2 m/S 641 mmHg 82%
    03:00 +8°C° 0 mm 2 m/S 641 mmHg 81%
    04:00 +8°C° 0 mm 2 m/S 641 mmHg 80%
    05:00 +7°C° 0 mm 2 m/S 641 mmHg 79%
    06:00 +7°C° 0 mm 2 m/S 641 mmHg 78%
    07:00 +10°C° 0 mm 2 m/S 642 mmHg 69%
    08:00 +13°C° 0 mm 2 m/S 644 mmHg 61%
    09:00 +16°C° 0 mm 3 m/S 645 mmHg 52%
    10:00 +17°C° 0 mm 3 m/S 645 mmHg 49%
    11:00 +18°C° 0 mm 3 m/S 645 mmHg 46%
    12:00 +19°C° 0 mm 3 m/S 646 mmHg 42%
    13:00 +19°C° 0 mm 3 m/S 645 mmHg 44%
    14:00 +19°C° 0 mm 3 m/S 645 mmHg 45%
    15:00 +19°C° 0 mm 3 m/S 645 mmHg 46%
    16:00 +17°C° 0 mm 3 m/S 644 mmHg 55%
    17:00 +15°C° 0 mm 2 m/S 644 mmHg 64%
    18:00 +12°C° 0 mm 2 m/S 643 mmHg 72%
    19:00 +12°C° 0 mm 2 m/S 643 mmHg 75%
    20:00 +11°C° 0 mm 1 m/S 643 mmHg 78%
    21:00 +10°C° 0 mm 1 m/S 643 mmHg 81%
    22:00 +10°C° 0 mm 1 m/S 643 mmHg 81%
    23:00 +10°C° 0 mm 1 m/S 643 mmHg 82%

    27 September, Donnerstag

    Zeit Temperatur Niederschläge Wind Luftdruck Luftfeuchtigkeit
    00:00 +10°C° 0 mm 1 m/S 643 mmHg 82%
    01:00 +10°C° 0 mm 1 m/S 642 mmHg 82%
    02:00 +9°C° 0 mm 1 m/S 642 mmHg 81%
    03:00 +9°C° 0 mm 1 m/S 642 mmHg 81%
    04:00 +9°C° 0 mm 1 m/S 642 mmHg 81%
    05:00 +9°C° 0 mm 1 m/S 642 mmHg 80%
    06:00 +9°C° 0 mm 1 m/S 642 mmHg 80%
    07:00 +12°C° 0 mm 1 m/S 643 mmHg 71%
    08:00 +14°C° 0 mm 1 m/S 644 mmHg 61%
    09:00 +18°C° 0 mm 1 m/S 645 mmHg 52%
    10:00 +18°C° 0 mm 2 m/S 645 mmHg 49%
    11:00 +20°C° 0 mm 2 m/S 645 mmHg 45%
    12:00 +21°C° 0 mm 2 m/S 646 mmHg 42%
    13:00 +21°C° 0 mm 2 m/S 645 mmHg 43%
    14:00 +21°C° 0 mm 2 m/S 645 mmHg 44%
    15:00 +21°C° 0 mm 2 m/S 644 mmHg 45%
    16:00 +18°C° 0 mm 2 m/S 643 mmHg 55%
    17:00 +16°C° 0 mm 1 m/S 642 mmHg 64%
    18:00 +13°C° 0 mm 1 m/S 641 mmHg 74%
    19:00 +13°C° 0 mm 1 m/S 641 mmHg 76%
    20:00 +12°C° 0 mm 1 m/S 641 mmHg 78%
    21:00 +12°C° 0 mm 1 m/S 641 mmHg 80%
    22:00 +11°C° 0 mm 1 m/S 640 mmHg 80%
    23:00 +11°C° 0 mm 1 m/S 640 mmHg 79%

    28 September, Freitag

    Zeit Temperatur Niederschläge Wind Luftdruck Luftfeuchtigkeit
    00:00 +11°C° 0 mm 1 m/S 640 mmHg 79%
    01:00 +11°C° 0 mm 1 m/S 639 mmHg 79%
    02:00 +11°C° 0 mm 1 m/S 639 mmHg 78%
    03:00 +11°C° 0 mm 1 m/S 639 mmHg 78%
    04:00 +11°C° 0 mm 1 m/S 638 mmHg 77%
    05:00 +10°C° 0 mm 1 m/S 638 mmHg 75%
    06:00 +10°C° 0 mm 1 m/S 638 mmHg 74%
    07:00 +13°C° 0 mm 1 m/S 639 mmHg 63%
    08:00 +16°C° 0 mm 1 m/S 640 mmHg 53%
    09:00 +20°C° 0 mm 1 m/S 641 mmHg 43%
    10:00 +21°C° 0 mm 1 m/S 641 mmHg 40%
    11:00 +22°C° 0 mm 1 m/S 641 mmHg 38%
    12:00 +23°C° 0 mm 1 m/S 642 mmHg 36%
    13:00 +23°C° 0 mm 1 m/S 641 mmHg 37%
    14:00 +23°C° 0 mm 1 m/S 640 mmHg 38%
    15:00 +22°C° 0 mm 1 m/S 640 mmHg 40%
    16:00 +20°C° 0 mm 1 m/S 639 mmHg 48%
    17:00 +18°C° 0 mm 1 m/S 638 mmHg 57%
    18:00 +14°C° 0 mm 1 m/S 637 mmHg 66%
    19:00 +14°C° 0 mm 1 m/S 637 mmHg 68%
    20:00 +13°C° 0 mm 1 m/S 637 mmHg 70%
    21:00 +12°C° 0 mm 1 m/S 637 mmHg 72%
    22:00 +12°C° 0 mm 1 m/S 637 mmHg 72%
    23:00 +12°C° 0 mm 2 m/S 637 mmHg 72%

    29 September, Samstag

    Zeit Temperatur Niederschläge Wind Luftdruck Luftfeuchtigkeit
    00:00 +10°C° 0 mm 2 m/S 636 mmHg 72%
    01:00 +10°C° 0 mm 2 m/S 636 mmHg 71%
    02:00 +10°C° 0 mm 2 m/S 636 mmHg 71%
    03:00 +10°C° 0 mm 2 m/S 636 mmHg 70%
    04:00 +10°C° 0 mm 2 m/S 636 mmHg 69%
    05:00 +9°C° 0 mm 2 m/S 636 mmHg 67%
    06:00 +9°C° 0 mm 2 m/S 636 mmHg 66%
    07:00 +13°C° 0 mm 1 m/S 637 mmHg 58%
    08:00 +16°C° 0 mm 1 m/S 638 mmHg 50%
    09:00 +20°C° 0 mm 1 m/S 639 mmHg 42%
    10:00 +21°C° 0 mm 1 m/S 639 mmHg 39%
    11:00 +22°C° 0 mm 1 m/S 639 mmHg 37%
    12:00 +23°C° 0 mm 1 m/S 640 mmHg 34%
    13:00 +23°C° 0 mm 1 m/S 639 mmHg 35%
    14:00 +23°C° 0 mm 1 m/S 639 mmHg 36%
    15:00 +22°C° 0 mm 1 m/S 638 mmHg 37%
    16:00 +20°C° 0 mm 1 m/S 638 mmHg 45%
    17:00 +18°C° 0 mm 1 m/S 637 mmHg 53%
    18:00 +15°C° 0 mm 1 m/S 636 mmHg 61%
    19:00 +14°C° 0 mm 1 m/S 636 mmHg 64%
    20:00 +13°C° 0 mm 1 m/S 637 mmHg 67%
    21:00 +12°C° 0 mm 1 m/S 637 mmHg 69%
    22:00 +12°C° 0 mm 1 m/S 637 mmHg 70%
    23:00 +12°C° 0 mm 1 m/S 636 mmHg 70%
    Mehr zeigen